Time,TemperatureF,DewpointF,PressureIn,WindDirection,WindDirectionDegrees,WindSpeedMPH,WindSpeedGustMPH,Humidity,HourlyPrecipIn,Conditions,Clouds,dailyrainin,SolarRadiationWatts/m^2,SoftwareType,DateUTC
2013-08-21 01:00:00,71.0,62.0,-100.00,NNE,22,4.0,-999.0,73,-99.99,,,-99.99,0.000000,,2013-08-21 05:00:00,
2013-08-21 01:43:00,71.0,62.0,-100.00,NNE,22,4.0,-999.0,73,-99.99,,,-99.99,0.000000,,2013-08-21 05:43:00,
2013-08-21 01:52:00,71.0,62.0,-100.00,NNE,22,4.0,-999.0,73,-99.99,,,-99.99,0.000000,,2013-08-21 05:52:00,
2013-08-21 03:00:00,69.0,62.0,-100.00,NNE,22,3.0,-999.0,77,-99.99,,,-99.99,0.000000,,2013-08-21 07:00:00,
2013-08-21 03:42:00,69.0,62.0,-100.00,NNE,22,3.0,-999.0,77,-99.99,,,-99.99,0.000000,,2013-08-21 07:42:00,
2013-08-21 03:53:00,69.0,62.0,-100.00,NNE,22,3.0,-999.0,77,-99.99,,,-99.99,0.000000,,2013-08-21 07:53:00,
2013-08-21 04:00:00,68.0,62.0,-100.00,NNE,22,3.0,-999.0,79,-99.99,,,-99.99,0.000000,,2013-08-21 08:00:00,
2013-08-21 04:43:00,68.0,62.0,-100.00,NNE,22,3.0,-999.0,79,-99.99,,,-99.99,0.000000,,2013-08-21 08:43:00,
2013-08-21 04:53:00,68.0,62.0,-100.00,NNE,22,3.0,-999.0,79,-99.99,,,-99.99,0.000000,,2013-08-21 08:53:00,
2013-08-21 05:00:00,67.0,61.0,-100.00,NNE,22,3.0,-999.0,80,-99.99,,,-99.99,0.000000,,2013-08-21 09:00:00,
2013-08-21 05:43:00,67.0,61.0,-100.00,NNE,22,3.0,-999.0,80,-99.99,,,-99.99,0.000000,,2013-08-21 09:43:00,
2013-08-21 05:54:00,67.0,61.0,-100.00,NNE,22,3.0,-999.0,80,-99.99,,,-99.99,0.000000,,2013-08-21 09:54:00,
2013-08-21 06:00:00,65.0,61.0,-100.00,NE,45,2.0,-999.0,85,-99.99,,,-99.99,0.000000,,2013-08-21 10:00:00,
2013-08-21 06:43:00,65.0,61.0,-100.00,NE,45,2.0,-999.0,85,-99.99,,,-99.99,0.000000,,2013-08-21 10:43:00,
2013-08-21 06:53:00,65.0,61.0,-100.00,NE,45,2.0,-999.0,85,-99.99,,,-99.99,0.000000,,2013-08-21 10:53:00,
2013-08-21 07:00:00,65.0,61.0,-100.00,NNE,22,2.0,-999.0,86,-99.99,,,-99.99,0.000000,,2013-08-21 11:00:00,
2013-08-21 07:42:00,65.0,61.0,-100.00,NNE,22,2.0,-999.0,86,-99.99,,,-99.99,0.000000,,2013-08-21 11:42:00,
2013-08-21 07:53:00,65.0,61.0,-100.00,NNE,22,2.0,-999.0,86,-99.99,,,-99.99,0.000000,,2013-08-21 11:53:00,
2013-08-21 08:00:00,65.0,61.0,-100.00,NNE,22,2.0,-999.0,87,-99.99,,,-99.99,26.680000,,2013-08-21 12:00:00,
2013-08-21 08:42:00,65.0,61.0,-100.00,NNE,22,2.0,-999.0,87,-99.99,,,-99.99,26.680000,,2013-08-21 12:42:00,
2013-08-21 08:52:00,65.0,61.0,-100.00,NNE,22,2.0,-999.0,87,-99.99,,,-99.99,26.680000,,2013-08-21 12:52:00,
2013-08-21 10:00:00,74.0,64.0,-100.00,ENE,67,5.0,-999.0,71,-99.99,,,-99.99,279.559998,,2013-08-21 14:00:00,
2013-08-21 10:42:00,74.0,64.0,-100.00,ENE,67,5.0,-999.0,71,-99.99,,,-99.99,279.559998,,2013-08-21 14:42:00,
2013-08-21 10:52:00,74.0,64.0,-100.00,ENE,67,5.0,-999.0,71,-99.99,,,-99.99,279.559998,,2013-08-21 14:52:00,
2013-08-21 11:00:00,79.0,64.0,-100.00,East,90,6.0,-999.0,61,-99.99,,,-99.99,422.239990,,2013-08-21 15:00:00,
2013-08-21 11:43:00,79.0,64.0,-100.00,East,90,6.0,-999.0,61,-99.99,,,-99.99,422.239990,,2013-08-21 15:43:00,
2013-08-21 11:55:00,79.0,64.0,-100.00,East,90,6.0,-999.0,61,-99.99,,,-99.99,422.239990,,2013-08-21 15:55:00,
2013-08-21 13:00:00,84.0,60.0,-100.00,ESE,112,7.0,-999.0,45,-99.99,,,-99.99,537.080017,,2013-08-21 17:00:00,
2013-08-21 13:43:00,84.0,60.0,-100.00,ESE,112,7.0,-999.0,45,-99.99,,,-99.99,537.080017,,2013-08-21 17:43:00,
2013-08-21 13:53:00,84.0,60.0,-100.00,ESE,112,7.0,-999.0,45,-99.99,,,-99.99,537.080017,,2013-08-21 17:53:00,
2013-08-21 14:00:00,84.0,59.0,-100.00,ESE,112,5.0,-999.0,42,-99.99,,,-99.99,481.399994,,2013-08-21 18:00:00,
2013-08-21 14:42:00,84.0,59.0,-100.00,ESE,112,5.0,-999.0,42,-99.99,,,-99.99,481.399994,,2013-08-21 18:42:00,
2013-08-21 14:52:00,84.0,59.0,-100.00,ESE,112,5.0,-999.0,42,-99.99,,,-99.99,481.399994,,2013-08-21 18:52:00,
2013-08-21 15:00:00,86.0,58.0,-100.00,SE,135,7.0,-999.0,39,-99.99,,,-99.99,531.280029,,2013-08-21 19:00:00,
2013-08-21 15:52:00,86.0,58.0,-100.00,SE,135,7.0,-999.0,39,-99.99,,,-99.99,531.280029,,2013-08-21 19:52:00,
2013-08-21 17:00:00,86.0,59.0,-100.00,East,90,6.0,-999.0,39,-99.99,,,-99.99,375.839996,,2013-08-21 21:00:00,
2013-08-21 17:45:00,86.0,59.0,-100.00,East,90,6.0,-999.0,39,-99.99,,,-99.99,375.839996,,2013-08-21 21:45:00,
2013-08-21 17:55:00,86.0,59.0,-100.00,East,90,6.0,-999.0,39,-99.99,,,-99.99,375.839996,,2013-08-21 21:55:00,
2013-08-21 18:00:00,87.0,60.0,-100.00,East,90,5.0,-999.0,41,-99.99,,,-99.99,339.880005,,2013-08-21 22:00:00,
2013-08-21 18:44:00,87.0,60.0,-100.00,East,90,5.0,-999.0,41,-99.99,,,-99.99,339.880005,,2013-08-21 22:44:00,
2013-08-21 18:53:00,87.0,60.0,-100.00,East,90,5.0,-999.0,41,-99.99,,,-99.99,339.880005,,2013-08-21 22:53:00,
2013-08-21 19:00:00,85.0,62.0,-100.00,ENE,67,6.0,-999.0,45,-99.99,,,-99.99,192.559998,,2013-08-21 23:00:00,
2013-08-21 19:43:00,85.0,62.0,-100.00,ENE,67,6.0,-999.0,45,-99.99,,,-99.99,192.559998,,2013-08-21 23:43:00,
2013-08-21 19:53:00,85.0,62.0,-100.00,ENE,67,6.0,-999.0,45,-99.99,,,-99.99,192.559998,,2013-08-21 23:53:00,
2013-08-21 20:00:00,83.0,62.0,-100.00,ENE,67,5.0,-999.0,49,-99.99,,,-99.99,84.680000,,2013-08-22 00:00:00,
2013-08-21 20:42:00,83.0,62.0,-100.00,ENE,67,5.0,-999.0,49,-99.99,,,-99.99,84.680000,,2013-08-22 00:42:00,
2013-08-21 20:52:00,83.0,62.0,-100.00,ENE,67,5.0,-999.0,49,-99.99,,,-99.99,84.680000,,2013-08-22 00:52:00,
2013-08-21 21:00:00,79.0,63.0,-100.00,NE,45,3.0,-999.0,58,-99.99,,,-99.99,8.120000,,2013-08-22 01:00:00,
2013-08-21 21:42:00,79.0,63.0,-100.00,NE,45,3.0,-999.0,58,-99.99,,,-99.99,8.120000,,2013-08-22 01:42:00,
2013-08-21 21:52:00,79.0,63.0,-100.00,NE,45,3.0,-999.0,58,-99.99,,,-99.99,8.120000,,2013-08-22 01:52:00,
2013-08-21 22:00:00,77.0,64.0,-100.00,NE,45,3.0,-999.0,64,-99.99,,,-99.99,0.000000,,2013-08-22 02:00:00,
2013-08-21 22:52:00,77.0,64.0,-100.00,NE,45,3.0,-999.0,64,-99.99,,,-99.99,0.000000,,2013-08-22 02:52:00,
2013-08-21 23:00:00,76.0,64.0,-100.00,ENE,67,5.0,-999.0,65,-99.99,,,-99.99,0.000000,,2013-08-22 03:00:00,
2013-08-21 23:45:00,76.0,64.0,-100.00,ENE,67,5.0,-999.0,65,-99.99,,,-99.99,0.000000,,2013-08-22 03:45:00,
2013-08-21 23:54:00,76.0,64.0,-100.00,ENE,67,5.0,-999.0,65,-99.99,,,-99.99,0.000000,,2013-08-22 03:54:00,